Thurgood Marshall Middle School FL US WEATHERSTEM current weather conditions

sailwx.info

Wind from 250 at 8 knots gusting 10

Air temperature 24.3° C
Dewpoint 17.3° C

Last reported at 2020-Apr-04 21:00 UTC.
Time now 2020-Apr-04 21:55 UTC

Location: N 27°45' W 082°41'.
View on Google Maps.

See reports from other nearby stations

  
Tides and Currents Weather Stations Pressure Air Temp Water Temp Dewpoint Dewpoint Depression Visibility Wind Speed Wind Dir Waves Ship Positions
date/time (UTC)wind fromknots sea level pressurealtimeterstation pressurevisibilityair tempwater tempwave heightnotes
2020-Apr-04 21:00 250 8 gusting 10 24.3
2020-Apr-04 20:50 279 6 gusting 9 24.7
2020-Apr-04 20:40 256 4 gusting 10 24.8
2020-Apr-04 20:30 304 3 gusting 11 25.0
2020-Apr-04 20:20 247 3 gusting 12 25.4
2020-Apr-04 20:10 273 7 gusting 12 24.8
2020-Apr-04 20:00 247 4 gusting 11 24.9
2020-Apr-04 19:50 250 9 gusting 12 24.9
2020-Apr-04 19:40 260 6 gusting 11 25.1
2020-Apr-04 19:30 236 6 gusting 10 25.5
2020-Apr-04 19:20 252 6 gusting 13 25.1
2020-Apr-04 19:10 205 6 gusting 13 25.4
2020-Apr-04 19:00 268 7 gusting 11 25.4
2020-Apr-04 18:50 235 10 gusting 10 25.6
2020-Apr-04 18:40 266 6 gusting 12 25.5
2020-Apr-04 18:30 274 9 gusting 12 25.3
2020-Apr-04 18:20 229 6 gusting 12 25.2
2020-Apr-04 18:10 247 8 gusting 10 25.4
2020-Apr-04 18:00 209 5 gusting 10 25.6
2020-Apr-04 17:50 242 3 gusting 9 25.8
2020-Apr-04 17:40 261 5 gusting 9 25.8
2020-Apr-04 17:30 261 8 gusting 11 25.7
2020-Apr-04 17:20 244 7 gusting 10 25.7
2020-Apr-04 17:10 228 6 gusting 8 25.9
2020-Apr-04 17:00 229 3 gusting 10 25.6
2020-Apr-04 16:50 214 8 gusting 10 26.1
2020-Apr-04 16:40 238 4 gusting 11 25.9
2020-Apr-04 16:30 255 4 gusting 10 25.6
2020-Apr-04 16:20 286 1 gusting 11 25.7
2020-Apr-04 16:00 232 4 gusting 9 25.3
2020-Apr-04 15:50 237 6 gusting 8 25.6
2020-Apr-04 15:40 226 4 gusting 8 25.3
2020-Apr-04 15:30 211 4 gusting 6 25.3
2020-Apr-04 15:20 173 2 gusting 5 25.4
2020-Apr-04 15:10 267 6 gusting 6 25.1
2020-Apr-04 15:00 236 1 gusting 7 24.6
2020-Apr-04 14:50 25.1
2020-Apr-04 14:40 082 1 gusting 2 24.6
2020-Apr-04 14:30 338 3 gusting 3 24.4
2020-Apr-04 14:20 24.1
2020-Apr-04 14:10 23.4
2020-Apr-04 14:00 047 2 gusting 4 23.1
2020-Apr-04 13:50 085 1 gusting 4 22.6
2020-Apr-04 13:40 055 1 gusting 6 22.3
2020-Apr-04 13:30 063 3 gusting 6 21.7
2020-Apr-04 13:10 078 4 gusting 6 21.1
2020-Apr-04 13:00 067 3 gusting 6 20.8
2020-Apr-04 12:50 067 2 gusting 5 20.4
2020-Apr-04 12:40 073 2 gusting 5 20.0
2020-Apr-04 12:30 053 2 gusting 4 19.5
2020-Apr-04 12:20 051 0 gusting 3 18.8
2020-Apr-04 12:10 17.9
2020-Apr-04 12:00 17.4
2020-Apr-04 11:50 17.0
2020-Apr-04 11:40 16.9
2020-Apr-04 11:30 16.8
2020-Apr-04 11:20 16.8
2020-Apr-04 11:10 16.7
2020-Apr-04 11:00 16.7
2020-Apr-04 10:50 16.6
2020-Apr-04 10:40 16.6
2020-Apr-04 10:30 16.4
2020-Apr-04 10:20 16.2
2020-Apr-04 10:10 16.4
2020-Apr-04 10:00 16.6
2020-Apr-04 09:40 16.4
2020-Apr-04 09:30 16.6
2020-Apr-04 09:20 16.7
2020-Apr-04 09:10 16.8
2020-Apr-04 09:00 16.9
2020-Apr-04 08:50 16.8
2020-Apr-04 08:40 17.0
2020-Apr-04 08:30 17.3
2020-Apr-04 08:20 17.6
2020-Apr-04 08:10 17.9
2020-Apr-04 08:00 18.3
2020-Apr-04 07:50 18.9
2020-Apr-04 07:40 18.8
2020-Apr-04 07:30 18.8
2020-Apr-04 07:20 054 0 gusting 2 19.2
2020-Apr-04 07:10 19.2
2020-Apr-04 07:00 19.1
2020-Apr-04 06:50 19.2
2020-Apr-04 06:40 19.1
2020-Apr-04 06:30 18.9
2020-Apr-04 06:20 18.9
2020-Apr-04 06:10 18.8
2020-Apr-04 06:00 18.7
2020-Apr-04 05:50 18.8
2020-Apr-04 05:40 19.1
2020-Apr-04 05:30 19.0
2020-Apr-04 05:20 19.8
2020-Apr-04 05:10 19.8
2020-Apr-04 05:00 19.8
2020-Apr-04 04:50 19.8
2020-Apr-04 04:40 19.8
2020-Apr-04 04:30 20.3
2020-Apr-04 04:20 20.3
2020-Apr-04 04:10 20.4
2020-Apr-04 04:00 20.3
2020-Apr-04 03:50 20.1
2020-Apr-04 03:40 20.0
2020-Apr-04 03:30 20.2
2020-Apr-04 03:20 20.2
2020-Apr-04 03:10 20.3
2020-Apr-04 03:00 20.4
2020-Apr-04 02:50 20.4
2020-Apr-04 02:40 20.8
2020-Apr-04 02:20 20.9
2020-Apr-04 02:10 21.5
2020-Apr-04 02:00 21.6
2020-Apr-04 01:50 21.9
2020-Apr-04 01:40 22.1
2020-Apr-04 01:30 355 1 gusting 3 22.1
2020-Apr-04 01:20 350 0 gusting 3 22.2
2020-Apr-04 01:10 348 1 gusting 4 22.2
2020-Apr-04 01:00 345 3 gusting 4 22.3
2020-Apr-04 00:50 355 0 gusting 6 22.5
2020-Apr-04 00:40 348 3 gusting 6 22.7
2020-Apr-04 00:30 355 3 gusting 6 22.8
2020-Apr-04 00:20 346 2 gusting 4 23.0
2020-Apr-04 00:10 332 1 gusting 4 23.2
2020-Apr-04 00:00 346 2 gusting 6 23.2
2020-Apr-03 23:50 348 4 gusting 8 23.3
2020-Apr-03 23:40 340 4 gusting 8 23.6
2020-Apr-03 23:30 309 2 gusting 7 23.8
2020-Apr-03 23:20 333 2 gusting 9 24.1
2020-Apr-03 23:10 321 4 gusting 9 24.2
2020-Apr-03 23:00 013 4 gusting 10 24.3
2020-Apr-03 22:50 288 9 gusting 11 24.6
2020-Apr-03 22:40 324 6 gusting 9 24.7
2020-Apr-03 22:30 294 6 gusting 11 24.9
2020-Apr-03 22:20 328 6 gusting 10 25.1
2020-Apr-03 22:10 307 1 gusting 11 25.1
2020-Apr-03 22:00 355 3 gusting 12 24.9
2020-Apr-03 21:50 306 3 gusting 11 24.9
2020-Apr-03 21:40 332 9 gusting 11 25.5
2020-Apr-03 21:30 294 4 gusting 11 25.4
2020-Apr-03 21:20 277 9 gusting 12 25.2
2020-Apr-03 21:10 329 5 gusting 13 25.4
2020-Apr-03 21:00 299 8 gusting 11 25.8
2020-Apr-03 20:50 319 9 gusting 13 25.7
2020-Apr-03 20:40 310 9 gusting 14 26.1
2020-Apr-03 20:30 244 10 gusting 13 26.2
2020-Apr-03 20:20 339 4 gusting 12 26.3
2020-Apr-03 20:10 005 2 gusting 11 26.7
2020-Apr-03 20:00 244 7 gusting 8 26.9
2020-Apr-03 19:50 267 9 gusting 11 26.8
2020-Apr-03 19:40 227 3 gusting 12 26.9
2020-Apr-03 19:30 254 4 gusting 12 26.4
2020-Apr-03 19:20 276 5 gusting 6 27.2
2020-Apr-03 19:10 222 3 gusting 8 27.4
2020-Apr-03 19:00 190 5 gusting 7 27.2
2020-Apr-03 18:50 224 3 gusting 8 27.2
2020-Apr-03 18:30 173 2 gusting 6 27.2
2020-Apr-03 18:20 184 4 gusting 8 27.3
2020-Apr-03 18:10 167 2 gusting 6 27.2
2020-Apr-03 18:00 176 3 gusting 7 26.9
2020-Apr-03 17:50 194 1 gusting 8 26.8
2020-Apr-03 17:30 005 4 gusting 9 26.7
2020-Apr-03 17:20 179 3 gusting 5 26.8
2020-Apr-03 17:10 141 2 gusting 8 25.9
2020-Apr-03 17:00 135 3 gusting 7 25.4
2020-Apr-03 16:50 105 2 gusting 6 25.4
2020-Apr-03 16:30 201 3 gusting 9 24.4
2020-Apr-03 16:20 160 3 gusting 8 24.8
2020-Apr-03 16:10 124 7 gusting 9 24.1
2020-Apr-03 16:00 136 6 gusting 9 24.6
2020-Apr-03 15:50 160 10 gusting 10 24.3
2020-Apr-03 15:30 193 3 gusting 9 23.6
2020-Apr-03 15:20 194 3 gusting 8 23.7
2020-Apr-03 15:10 095 1 gusting 7 22.9
2020-Apr-03 15:00 153 3 gusting 8 22.8
2020-Apr-03 14:50 168 5 gusting 7 23.0
2020-Apr-03 14:30 121 4 gusting 8 22.7
2020-Apr-03 14:20 161 0 gusting 8 22.0
2020-Apr-03 14:10 175 3 gusting 7 22.3
2020-Apr-03 14:00 140 2 gusting 8 21.4
2020-Apr-03 13:50 104 6 gusting 6 21.4
2020-Apr-03 13:30 108 2 gusting 6 20.1
2020-Apr-03 13:20 098 1 gusting 5 19.6
2020-Apr-03 13:10 093 1 gusting 2 19.2
2020-Apr-03 13:00 089 1 gusting 2 18.9
2020-Apr-03 12:50 092 1 gusting 2 18.6
2020-Apr-03 11:30 060 1 gusting 3 15.9
2020-Apr-03 11:20 060 1 gusting 2 15.8
2020-Apr-03 11:10 061 1 gusting 3 15.7
2020-Apr-03 11:00 061 1 gusting 2 15.7
2020-Apr-03 10:50 061 1 gusting 5 15.4
2020-Apr-03 10:30 041 1 gusting 2 14.7
2020-Apr-03 10:20 039 1 gusting 3 14.6
2020-Apr-03 10:10 042 2 gusting 3 14.3
2020-Apr-03 10:00 14.4
2020-Apr-03 09:50 14.7
2020-Apr-03 09:40 064 0 gusting 1 14.9
2020-Apr-03 09:30 064 1 gusting 2 15.1
2020-Apr-03 09:20 064 1 gusting 2 15.3
2020-Apr-03 09:00 066 1 gusting 4 15.9
2020-Apr-03 08:50 077 2 gusting 2 15.9
2020-Apr-03 08:40 15.8
2020-Apr-03 08:30 070 1 gusting 1 15.8
2020-Apr-03 08:20 15.7
2020-Apr-03 08:00 069 1 gusting 1 16.1
2020-Apr-03 07:50 069 1 gusting 1 16.6
2020-Apr-03 07:40 069 1 gusting 1 16.7
2020-Apr-03 07:20 066 1 gusting 4 17.3
2020-Apr-03 07:10 087 1 gusting 6 17.4
2020-Apr-03 07:00 067 5 gusting 7 17.5
2020-Apr-03 06:50 075 4 gusting 6 17.4
2020-Apr-03 06:40 083 4 gusting 7 16.9
2020-Apr-03 06:30 078 2 gusting 2 16.1
2020-Apr-03 06:20 15.8
2020-Apr-03 06:10 15.7
2020-Apr-03 06:00 15.7
2020-Apr-03 05:50 15.5
2020-Apr-03 05:40 15.8
2020-Apr-03 05:30 15.8
2020-Apr-03 05:20 15.7
2020-Apr-03 05:10 15.8
2020-Apr-03 05:00 16.4
2020-Apr-03 04:50 16.6
2020-Apr-03 04:30 16.8
2020-Apr-03 04:20 17.3
2020-Apr-03 04:10 17.4
2020-Apr-03 04:00 17.6
2020-Apr-03 03:50 17.8
2020-Apr-03 03:40 018 3 gusting 3 17.9
2020-Apr-03 03:30 024 1 gusting 2 17.9
2020-Apr-03 03:20 024 1 gusting 3 18.0
2020-Apr-03 03:10 024 1 gusting 2 17.9
2020-Apr-03 03:00 023 1 gusting 3 18.0
2020-Apr-03 02:50 355 0 gusting 3 17.9
2020-Apr-03 02:40 17.8
2020-Apr-03 02:30 17.9
2020-Apr-03 02:20 17.9
2020-Apr-03 02:10 18.2
2020-Apr-03 02:00 18.4
2020-Apr-03 01:50 18.3
2020-Apr-03 01:40 18.7
2020-Apr-03 01:30 350 1 gusting 2 18.9
2020-Apr-03 01:20 350 0 gusting 2 19.1
2020-Apr-03 01:10 350 0 gusting 2 19.3
2020-Apr-03 01:00 350 0 gusting 4 19.5
2020-Apr-03 00:50 355 2 gusting 5 19.7
2020-Apr-03 00:40 340 4 gusting 6 19.8
2020-Apr-03 00:30 355 3 gusting 5 19.9
2020-Apr-03 00:20 013 3 gusting 9 20.1
2020-Apr-03 00:10 346 6 gusting 8 20.2
2020-Apr-03 00:00 343 4 gusting 10 20.4
2020-Apr-02 23:50 335 8 gusting 9 20.7
2020-Apr-02 23:40 328 3 gusting 13 20.9
2020-Apr-02 23:30 342 5 gusting 12 21.1
2020-Apr-02 23:20 319 10 gusting 13 21.3
2020-Apr-02 23:10 335 5 gusting 12 21.6
2020-Apr-02 23:00 302 6 gusting 10 21.8
2020-Apr-02 22:50 336 4 gusting 12 21.9
2020-Apr-02 22:40 337 4 gusting 12 22.3
2020-Apr-02 22:30 330 5 gusting 9 22.7
2020-Apr-02 22:20 288 4 gusting 10 22.8